North Vernon, Indiana, United States (47265)
Lat: 39.01N, Lon: 85.62W
Wx Zone: INZ072
Local Info
Past Weather Observations for Thursday, June 25, 2015

NOTE: This archive is for the closest National Weather Service station to North Vernon. Information may differ from the station used for current weather conditions.

Click here for Long-term Archive

Time Weather Temperature Dewpoint Humidity Pressure Winds Precip Visibility
23:53
Clear
73°F / 23°C 70°F / 21°C 89% 29.95 in
(1014 mb)
Calm - 10SM
22:53
Partly Cloudy
73°F / 23°C 70°F / 21°C 89% 29.98 in
(1015 mb)
SW 5.8 mph
(SW 9 kph)
- 10SM
21:53
Mostly Cloudy
75°F / 24°C 70°F / 21°C 83% 29.95 in
(1014 mb)
Calm - 10SM
20:53
Mostly Cloudy
75°F / 24°C 72°F / 22°C 89% 29.95 in
(1014 mb)
SW 3.5 mph
(SW 6 kph)
- 10SM
19:53
Mostly Cloudy
79°F / 26°C 72°F / 22°C 79% 29.95 in
(1014 mb)
SW 5.8 mph
(SW 9 kph)
- 10SM
18:53
Mostly Cloudy
81°F / 27°C 70°F / 21°C 70% 29.95 in
(1014 mb)
SSW 5.8 mph
(SSW 9 kph)
- 10SM
17:53
Partly Cloudy
81°F / 27°C 68°F / 20°C 66% 29.95 in
(1014 mb)
SSW 8.1 mph
(SSW 13 kph)
- 10SM
16:53
Partly Cloudy
82°F / 28°C 68°F / 20°C 62% 29.98 in
(1015 mb)
SSW 8.1 mph
(SSW 13 kph)
- 10SM
15:53
Partly Cloudy
81°F / 27°C 70°F / 21°C 70% 29.98 in
(1015 mb)
SW 9.2 mph
(SW 15 kph)
- 10SM
14:53
Mostly Cloudy
81°F / 27°C 70°F / 21°C 70% 29.98 in
(1015 mb)
SSW 10.4 mph
(SSW 17 kph)
- 10SM
14:43
Mostly Cloudy
81°F / 27°C 70°F / 21°C 70% 29.98 in
(1015 mb)
SSW 10.4 mph
(SSW 17 kph)
- 10SM
13:53
Partly Cloudy
79°F / 26°C 70°F / 21°C 74% 29.98 in
(1015 mb)
SW 10.4 mph
(SW 17 kph)
- 10SM
12:53
Partly Cloudy
77°F / 25°C 68°F / 20°C 74% 30.01 in
(1016 mb)
S 5.8 mph
(S 9 kph)
- 10SM
11:53
Partly Cloudy
73°F / 23°C 66°F / 19°C 78% 30.04 in
(1017 mb)
S 11.5 mph
(S 19 kph)
- 10SM
10:53
Overcast
72°F / 22°C 66°F / 19°C 83% 30.04 in
(1017 mb)
SE 10.4 mph
(SE 17 kph)
0.00 in
(0.00 mm)
10SM
10:17
Mostly Cloudy
Light Rain
72°F / 22°C 64°F / 18°C 78% 30.04 in
(1017 mb)
SSE 11.5 mph
(SSE 19 kph)
0.00 in
(0.00 mm)
10SM
09:53
Mostly Cloudy
Light Rain
70°F / 21°C 64°F / 18°C 83% 30.04 in
(1017 mb)
SSE 9.2 mph
(SSE 15 kph)
0.02 in
(0.51 mm)
10SM
08:58
Overcast
Light Rain
66°F / 19°C 64°F / 18°C 94% 30.06 in
(1018 mb)
SE 9.2 mph
(SE 15 kph)
0.02 in
(0.51 mm)
3SM
08:55
Overcast
Light Rain
66°F / 19°C 63°F / 17°C 88% 30.06 in
(1018 mb)
SE 8.1 mph
(SE 13 kph)
0.01 in
(0.25 mm)
2SM
08:48
Overcast
Thunder Storms
66°F / 19°C 63°F / 17°C 88% 30.06 in
(1018 mb)
SE 8.1 mph
(SE 13 kph)
0.13 in
(3.30 mm)
3SM
08:47
Overcast
Thunder Storms
66°F / 19°C 63°F / 17°C 88% 30.06 in
(1018 mb)
SE 8.1 mph
(SE 13 kph)
0.12 in
(3.05 mm)
5SM
08:41
Overcast
Thunder Storms
66°F / 19°C 63°F / 17°C 88% 30.06 in
(1018 mb)
SE 6.9 mph
(SE 11 kph)
0.09 in
(2.29 mm)
6SM
08:25
Overcast
Light Rain
66°F / 19°C 63°F / 17°C 88% 30.06 in
(1018 mb)
SE 12.7 mph
(SE 20 kph)
0.07 in
(1.78 mm)
6SM
08:12
Overcast
Thunder Storms
66°F / 19°C 63°F / 17°C 88% 30.09 in
(1019 mb)
SE 5.8 mph
(SE 9 kph)
0.06 in
(1.52 mm)
4SM
07:53
Overcast
Thunder Storms
64°F / 18°C 63°F / 17°C 94% 30.06 in
(1018 mb)
E 6.9 mph
(E 11 kph)
0.18 in
(4.57 mm)
4SM
07:40
Overcast
Thunder Storms
66°F / 19°C 63°F / 17°C 88% 30.06 in
(1018 mb)
E 8.1 mph
(E 13 kph)
0.15 in
(3.81 mm)
5SM
07:33
Overcast
Thunder Storms
66°F / 19°C 63°F / 17°C 88% 30.06 in
(1018 mb)
E 9.2 mph
(E 15 kph)
0.14 in
(3.56 mm)
4SM
07:23
Overcast
Thunder Storms
66°F / 19°C 63°F / 17°C 88% 30.12 in
(1020 mb)
S 4.6 mph
(S 7 kph)
0.12 in
(3.05 mm)
2 1/2SM
07:06
Overcast
Thunder Storms
66°F / 19°C 64°F / 18°C 94% 30.12 in
(1020 mb)
Calm 0.03 in
(0.76 mm)
4SM
06:53
Overcast
Thunder Storms
66°F / 19°C 64°F / 18°C 94% 30.09 in
(1019 mb)
NE 4.6 mph
(NE 7 kph)
0.38 in
(9.65 mm)
2 1/2SM
06:23
Overcast
Thunder Storms
66°F / 19°C 64°F / 18°C 94% 30.06 in
(1018 mb)
ESE 6.9 mph
(ESE 11 kph)
0.25 in
(6.35 mm)
4SM
05:58
Overcast
Thunder Storms
68°F / 20°C 64°F / 18°C 88% 30.12 in
(1020 mb)
NW 19.6 mph
(NW 32 kph)
0.08 in
(2.03 mm)
2 1/2SM
05:53
Overcast
Thunder Storms
68°F / 20°C 64°F / 18°C 88% 30.12 in
(1020 mb)
NW 19.6 mph
(NW 32 kph)
0.07 in
(1.78 mm)
5SM
05:43
Overcast
Thunder Storms
68°F / 20°C 64°F / 18°C 88% 30.09 in
(1019 mb)
NNW 16.1 mph
(NNW 26 kph)
0.03 in
(0.76 mm)
7SM
04:53
Partly Cloudy
70°F / 21°C 63°F / 17°C 78% 30.04 in
(1017 mb)
S 4.6 mph
(S 7 kph)
- 10SM
03:53
Mostly Cloudy
66°F / 19°C 63°F / 17°C 88% 30.01 in
(1016 mb)
SE 5.8 mph
(SE 9 kph)
- 10SM
02:53
Clear
66°F / 19°C 63°F / 17°C 88% 30.04 in
(1017 mb)
E 5.8 mph
(E 9 kph)
- 8SM
01:53
Clear
66°F / 19°C 63°F / 17°C 88% 30.06 in
(1018 mb)
NE 4.6 mph
(NE 7 kph)
- 9SM
00:53
Clear
66°F / 19°C 63°F / 17°C 88% 30.09 in
(1019 mb)
Calm - 10SM
Time Weather Temperature Dewpoint Humidity Pressure Winds Precip Visibility


Weather for websites

WeatherForYou.com, LLC is not responsible for any damages or problems caused by this service. Current weather conditions are obtained from the closest station including government and personal stations which may have varying degrees of accuracy. Weather forecasts are derived from the NOAA NDFD. Like all things, this site belongs to Jesus Christ... He just trusts us to maintain it. If you have any questions or comments email webmaster@weatherforyou.com

Copyright © 2015, WeatherForYou.com LLC. All rights reserved.